Time,TemperatureF,DewpointF,PressureIn,WindDirection,WindDirectionDegrees,WindSpeedMPH,WindSpeedGustMPH,Humidity,HourlyPrecipIn,Conditions,Clouds,dailyrainin,SoftwareType,DateUTC
2013-02-15 00:00:00,44.7,37.3,29.91,NW,324,2.0,4.0,75,0.00,CLR,FEW,0.00,WeatherDisplay:10.37,2013-02-14 23:00:00,
2013-02-15 01:00:00,44.2,36.8,29.92,NW,323,2.0,5.0,75,0.00,CLR,FEW,0.00,WeatherDisplay:10.37,2013-02-15 00:00:00,
2013-02-15 02:00:00,42.8,36.4,29.92,NNW,327,1.0,5.0,78,0.00,CLR,FEW,0.00,WeatherDisplay:10.37,2013-02-15 01:00:00,
2013-02-15 03:00:00,42.4,36.3,29.91,NW,319,2.0,4.0,79,0.00,CLR,FEW,0.00,WeatherDisplay:10.37,2013-02-15 02:00:00,
2013-02-15 04:00:00,41.5,36.1,29.91,NNW,328,2.0,5.0,81,0.00,CLR,FEW,0.00,WeatherDisplay:10.37,2013-02-15 03:00:00,
2013-02-15 05:00:00,41.2,36.1,29.91,NW,326,2.0,6.0,82,0.00,CLR,FEW,0.00,WeatherDisplay:10.37,2013-02-15 04:00:00,
2013-02-15 06:00:00,41.1,36.0,29.90,NW,326,2.0,5.0,82,0.00,CLR,FEW,0.00,WeatherDisplay:10.37,2013-02-15 05:00:00,
2013-02-15 07:00:00,40.6,35.5,29.91,NW,318,2.0,4.0,82,0.00,CLR,FEW,0.00,WeatherDisplay:10.37,2013-02-15 06:00:00,
2013-02-15 08:00:00,41.3,36.2,29.92,NNW,327,1.0,7.0,82,0.00,CLR,FEW,0.00,WeatherDisplay:10.37,2013-02-15 07:00:00,
2013-02-15 09:00:00,44.7,37.9,29.93,NNW,334,2.0,6.0,77,0.00,CLR,FEW,0.00,WeatherDisplay:10.37,2013-02-15 08:00:00,
2013-02-15 10:00:00,47.4,39.5,29.93,WNW,299,1.0,6.0,74,0.00,CLR,FEW,0.00,WeatherDisplay:10.37,2013-02-15 09:00:00,
2013-02-15 11:00:00,50.6,39.3,29.94,SSW,193,0.0,5.0,65,0.00,CLR,FEW,0.00,WeatherDisplay:10.37,2013-02-15 10:00:00,
2013-02-15 12:00:00,52.9,41.0,29.93,South,190,2.0,6.0,64,0.00,CLR,FEW,0.00,WeatherDisplay:10.37,2013-02-15 11:00:00,
2013-02-15 13:00:00,54.6,39.7,29.92,South,183,3.0,7.0,57,0.00,CLR,FEW,0.00,WeatherDisplay:10.37,2013-02-15 12:00:00,
2013-02-15 14:00:00,55.5,39.1,29.91,SW,228,2.0,9.0,54,0.00,CLR,FEW,0.00,WeatherDisplay:10.37,2013-02-15 13:00:00,
2013-02-15 15:00:00,55.8,38.9,29.91,SW,231,2.0,12.0,53,0.00,CLR,FEW,0.00,WeatherDisplay:10.37,2013-02-15 14:00:00,
2013-02-15 16:00:00,52.9,39.4,29.92,WSW,241,2.0,12.0,60,0.00,CLR,FEW,0.00,WeatherDisplay:10.37,2013-02-15 15:00:00,
2013-02-15 17:00:00,51.4,40.0,29.91,WSW,243,2.0,6.0,65,0.00,CLR,FEW,0.00,WeatherDisplay:10.37,2013-02-15 16:00:00,
2013-02-15 18:00:00,49.3,41.0,29.91,WSW,242,0.0,4.0,73,0.00,CLR,FEW,0.00,WeatherDisplay:10.37,2013-02-15 17:00:00,
2013-02-15 19:00:00,48.4,41.2,29.92,NE,37,0.0,2.0,76,0.00,CLR,FEW,0.00,WeatherDisplay:10.37,2013-02-15 18:00:00,
2013-02-15 20:00:00,48.7,42.8,29.92,SSW,200,0.0,2.0,80,0.00,CLR,FEW,0.00,WeatherDisplay:10.37,2013-02-15 19:00:00,
2013-02-15 21:00:00,47.8,41.9,29.92,East,82,0.0,4.0,80,0.00,CLR,FEW,0.00,WeatherDisplay:10.37,2013-02-15 20:00:00,
2013-02-15 22:00:00,48.0,42.8,29.92,NW,325,0.0,3.0,82,0.00,CLR,FEW,0.00,WeatherDisplay:10.37,2013-02-15 21:00:00,
2013-02-15 23:00:00,47.6,41.4,29.92,West,279,0.0,1.0,79,0.00,CLR,FEW,0.00,WeatherDisplay:10.37,2013-02-15 22:00:00,